Theta_e
320 319 318 318 318 316 317 316 315 313 311 318 317 322 319 316 314 326 329 328 324 313 306 309 307 305 308 312 312 314 312 311 312 310 311 308 309 307 307 306 305 307 307 307 307 308 305 307 304 306 307 308 310 311 312 312 311 310 307 310 310 317 305 301 302 307 308 311 312 312 313 313 310 311 312 311 306 307 306 305 306 303 303 302 304 302 307
319 319 318 318 317 316 316 315 315 314 311 316 318 318 316 315 313 316 326 328 324 313 303 303 304 306 309 309 310 314 313 312 310 309 310 308 308 306 306 307 308 306 309 308 306 309 302 307 307 306 308 306 312 312 312 312 309 308 309 306 310 303 309 305 300 299 302 304 307 308 311 311 308 309 311 312 311 312 311 310 310 303 304 307 301 295 305
319 319 319 318 317 317 316 315 315 314 313 314 317 315 317 316 318 316 319 326 321 310 310 307 306 307 307 308 307 309 311 313 312 310 309 311 309 308 306 307 309 307 309 308 308 309 306 304 308 308 308 308 311 312 311 312 310 313 314 323 313 306 304 305 297 295 294 292 294 297 302 306 309 312 310 311 311 312 311 304 307 299 306 307 302 304 311
319 319 319 318 317 317 316 315 315 314 313 311 318 318 316 314 308 313 316 319 319 316 316 312 309 308 309 308 309 310 308 312 313 312 310 312 311 309 309 310 310 308 307 306 305 306 309 306 307 307 306 307 310 312 312 311 311 320 320 314 312 305 306 307 307 301 299 303 306 309 309 307 304 307 309 310 312 313 311 308 306 301 305 304 309 309 311
319 320 319 318 318 317 316 315 315 314 312 311 315 320 319 320 312 312 310 315 314 313 314 310 310 307 311 308 310 309 309 310 311 313 308 311 310 310 309 308 306 306 306 305 305 306 305 308 307 306 305 308 310 312 312 311 314 323 314 317 309 307 302 310 307 305 306 308 307 309 309 306 307 308 309 311 310 311 309 305 304 313 306 299 309 316 313
320 320 320 319 318 317 316 315 314 313 312 311 319 317 322 312 315 316 317 308 308 310 310 312 310 311 311 308 311 308 309 308 307 311 312 312 312 307 308 308 308 307 306 306 303 305 305 306 304 308 308 306 309 308 310 310 319 316 311 314 309 306 302 311 306 305 307 309 309 310 310 310 309 309 310 310 311 311 308 308 311 312 304 301 312 317 314
320 320 321 321 319 318 318 316 314 312 311 311 321 318 322 318 316 316 319 311 314 313 315 315 313 313 314 310 309 307 308 308 310 309 308 308 309 309 304 305 307 307 308 307 305 308 303 302 307 307 306 307 308 306 309 311 313 311 310 311 313 308 303 308 307 306 308 310 309 310 310 309 309 308 309 311 311 311 312 311 312 311 311 317 316 317 318
320 321 321 321 320 319 318 316 315 313 309 317 325 325 318 314 312 310 316 314 313 314 313 312 312 311 315 310 311 311 310 308 310 312 310 306 306 310 306 306 308 308 308 309 305 307 307 306 307 308 308 307 309 308 307 306 311 311 309 310 313 307 307 308 307 305 306 310 310 309 309 308 307 308 308 309 310 310 312 313 312 312 313 317 317 315 317
320 320 320 321 320 319 319 317 315 312 310 321 322 321 324 321 322 320 313 310 311 313 312 310 309 307 312 310 311 311 311 310 311 310 313 310 308 308 306 308 308 310 309 308 308 309 309 310 310 310 310 305 310 307 308 309 307 310 308 309 309 308 307 308 308 303 303 308 308 308 310 309 308 307 308 309 310 308 311 310 313 313 310 316 316 315 317
320 320 320 321 320 319 319 318 316 312 310 321 322 318 325 325 324 324 319 311 316 311 313 311 308 305 310 311 312 311 311 313 312 308 312 313 312 311 310 309 308 308 308 308 309 311 311 312 313 313 312 313 312 312 312 311 309 308 307 311 308 309 307 304 304 300 300 307 307 306 307 307 303 304 308 310 311 312 314 313 315 315 316 313 311 312 321
320 320 320 320 320 320 320 319 317 313 317 319 319 318 322 319 317 318 317 308 311 312 312 310 308 309 310 311 311 313 312 313 312 306 308 311 312 314 313 311 308 307 307 311 315 315 314 315 314 314 313 312 311 310 310 311 310 309 308 307 308 311 306 303 308 299 301 304 306 307 303 296 299 312 314 312 310 311 309 308 312 317 319 316 317 322 324
319 320 320 320 320 320 320 320 318 314 313 320 322 320 323 323 321 319 314 308 308 313 311 309 310 311 309 309 310 310 311 312 312 314 310 312 313 313 312 311 310 306 313 316 316 315 315 315 313 315 312 311 310 311 311 309 309 313 310 307 306 305 306 306 307 301 300 303 305 300 295 297 310 317 316 316 315 314 311 311 316 319 320 320 321 322 320
319 320 320 320 320 320 320 320 318 316 313 319 320 320 324 325 320 317 315 312 308 310 308 310 314 313 312 311 310 311 313 314 315 316 316 314 312 313 314 312 310 311 316 314 315 315 310 308 309 308 308 309 309 310 309 309 308 309 310 310 306 304 304 305 304 304 304 301 302 292 295 307 312 315 317 317 315 314 312 310 316 319 321 324 324 323 323
319 319 320 320 320 320 320 320 319 318 315 315 318 321 324 324 318 317 317 313 311 314 314 312 313 312 312 313 310 310 312 313 315 317 314 316 314 314 315 316 315 317 316 315 314 313 308 308 303 305 304 305 306 304 307 309 310 309 308 309 310 308 307 305 301 305 297 300 299 298 308 307 309 310 312 312 309 309 308 303 309 319 324 324 322 323 326
319 319 319 320 320 320 320 320 320 319 317 312 320 320 323 324 322 318 320 316 309 312 314 307 310 312 312 312 313 310 309 310 309 310 315 316 314 315 315 317 318 316 316 314 310 312 307 307 301 300 303 301 297 301 308 304 309 310 310 311 312 314 305 308 302 302 305 299 298 298 300 298 304 311 316 318 316 316 316 313 314 320 322 324 322 322 323
318 319 319 320 320 320 320 320 320 319 318 312 318 320 323 325 323 321 317 314 313 305 310 314 315 314 313 313 314 311 308 309 309 308 309 312 313 315 317 318 318 317 314 312 318 312 307 302 299 300 298 300 305 304 302 306 304 308 309 310 309 310 311 309 303 301 301 300 297 296 295 302 310 313 315 316 317 316 318 310 304 317 322 322 321 321 322
318 318 319 319 320 320 319 320 320 319 318 313 317 319 320 326 323 319 316 316 314 308 316 316 316 316 314 312 313 311 312 308 309 305 305 308 311 313 315 317 318 316 314 310 310 306 304 303 305 303 305 307 302 302 306 304 303 303 307 308 307 306 305 306 302 300 300 299 296 296 301 305 311 313 312 315 317 316 313 299 300 315 321 322 321 321 320
317 318 319 319 319 320 320 319 320 319 317 314 316 317 319 325 324 321 317 314 312 311 316 319 316 313 312 313 310 315 315 313 313 313 308 310 313 312 313 314 312 315 315 308 311 304 303 303 301 301 300 308 308 307 295 304 302 302 302 304 303 303 303 303 299 300 301 300 298 300 304 312 314 312 314 315 317 313 301 296 309 321 323 324 322 322 322
317 318 319 319 319 319 319 319 320 319 318 313 318 318 318 323 325 322 317 314 313 308 317 321 322 319 320 320 316 316 316 314 313 309 310 308 311 315 315 315 315 308 311 307 309 304 303 303 307 305 302 305 307 301 307 302 301 305 305 302 303 303 305 305 304 299 298 300 298 299 305 313 316 316 314 317 312 300 300 313 324 324 324 323 325 321 322
317 317 318 318 318 319 319 319 319 319 318 313 314 316 320 323 324 322 316 312 314 312 316 318 320 317 321 317 315 313 314 314 314 310 308 305 320 316 312 307 313 311 311 310 303 307 303 301 303 308 303 303 306 309 305 306 309 305 305 307 302 303 301 300 300 303 302 302 298 295 291 311 317 316 315 318 308 310 318 322 323 324 324 324 322 322 321
317 317 317 318 318 318 318 319 319 319 318 316 312 315 315 323 323 323 322 317 311 308 312 321 321 319 318 317 319 319 317 314 315 311 315 313 319 314 300 304 308 309 306 308 300 302 306 302 305 305 307 306 312 306 301 304 306 311 307 305 305 310 301 302 303 307 298 299 297 295 307 314 317 315 311 317 319 322 324 322 319 322 323 325 328 326 326
316 317 317 318 318 318 318 318 319 318 318 316 313 317 314 321 323 322 323 320 312 310 314 319 319 317 318 318 318 320 320 320 321 321 315 314 320 315 315 317 316 313 315 315 308 307 308 307 309 305 303 305 310 303 307 301 299 307 311 309 299 312 307 311 303 308 304 303 307 312 320 316 319 320 321 322 323 326 325 324 322 321 324 328 326 327 328
316 317 317 317 318 318 318 318 318 318 317 317 316 317 313 317 318 323 321 313 315 315 316 316 317 318 320 321 322 322 323 324 323 322 321 314 312 316 315 315 314 318 318 324 316 314 315 312 306 308 305 306 306 305 306 304 302 307 304 309 307 313 314 320 312 308 313 313 315 318 316 316 319 321 321 322 324 324 323 324 322 325 326 328 325 328 328
316 316 317 317 317 318 318 318 318 317 317 317 315 316 315 317 319 319 316 314 311 308 314 318 315 313 315 317 322 323 322 321 322 323 325 322 311 311 315 317 318 317 320 324 324 317 315 314 311 311 304 309 310 303 301 301 304 308 306 305 309 312 312 311 307 312 304 299 315 313 313 315 315 318 321 324 324 325 323 325 328 328 327 328 326 328 328
316 316 317 317 317 317 318 318 318 317 316 316 316 317 317 316 319 319 313 307 310 308 304 309 310 317 321 323 321 321 324 326 325 323 321 321 318 312 310 318 319 316 316 319 325 318 320 313 310 309 304 310 314 303 309 305 304 310 303 307 308 307 314 309 309 308 306 306 313 315 317 319 318 319 320 320 324 325 326 330 332 331 331 329 328 329 328
315 316 317 317 317 317 317 317 317 317 316 315 316 315 314 316 320 321 316 315 314 312 307 306 311 319 320 317 316 320 324 324 323 323 322 320 320 319 316 317 317 320 318 317 317 315 314 314 314 311 305 307 313 305 306 309 308 312 306 306 311 312 313 305 309 306 309 313 314 317 319 319 318 319 321 323 325 326 327 329 330 330 329 328 327 327 327
315 316 316 316 316 317 317 316 316 316 316 314 315 316 315 316 319 317 314 313 308 305 308 306 311 316 318 313 316 318 320 321 322 322 321 321 320 320 319 318 316 316 315 315 318 315 315 313 312 308 309 309 315 312 312 310 309 308 307 310 314 310 307 310 309 305 304 306 309 313 308 308 313 315 318 325 328 329 328 329 328 328 329 328 324 325 328
315 316 316 316 316 316 316 315 315 316 315 315 316 316 317 315 317 319 319 317 311 304 304 305 305 311 316 310 313 314 317 320 319 319 320 320 320 319 318 317 316 312 313 313 310 311 311 308 308 314 312 312 308 308 313 312 313 309 309 310 314 309 312 309 306 305 304 311 312 321 318 316 316 319 321 328 329 329 327 329 327 327 330 329 326 324 324
316 316 316 316 315 315 315 315 314 315 315 313 315 315 315 318 319 319 318 319 317 310 308 308 311 310 305 311 321 320 320 317 316 316 318 319 319 319 317 317 315 314 313 312 313 313 311 311 315 311 310 317 310 306 308 305 305 304 309 314 314 318 316 313 313 313 312 314 313 318 317 314 316 319 326 328 330 329 327 328 329 330 330 328 328 327 327
315 316 315 314 314 314 314 314 314 314 313 315 313 311 310 314 319 319 319 319 317 313 306 304 302 307 314 314 314 317 318 320 317 316 315 315 316 318 318 318 317 315 314 313 313 309 312 312 314 315 318 322 311 310 305 306 304 307 314 316 317 321 318 320 320 316 313 317 317 319 320 319 321 327 327 329 328 327 325 327 330 329 329 329 328 329 329
315 314 314 313 313 313 313 312 313 313 311 313 310 307 309 307 313 320 317 319 319 313 308 308 304 310 310 317 318 315 315 317 317 316 315 315 316 316 318 319 318 316 311 312 313 313 315 310 311 313 317 321 317 310 306 305 303 306 311 315 317 317 315 317 321 322 321 322 320 319 321 319 323 325 326 327 325 326 326 327 329 331 330 331 330 330 329
314 313 313 312 312 312 311 311 311 312 313 311 310 310 311 312 315 319 318 317 318 311 306 303 305 307 308 313 318 319 317 316 316 316 316 316 315 316 318 317 317 318 315 312 314 314 312 316 314 314 312 320 317 308 308 306 304 306 314 315 316 317 318 319 319 321 321 324 322 317 317 317 323 322 320 325 324 326 327 328 328 329 333 329 331 331 329
313 312 312 312 312 312 312 312 312 312 312 314 313 312 312 313 313 315 317 318 316 311 313 308 303 307 306 311 315 315 316 315 314 314 313 317 314 316 313 319 319 318 323 313 309 308 315 314 315 311 314 322 313 310 307 306 308 313 313 314 316 323 323 323 321 322 323 324 323 320 318 316 320 324 324 324 324 325 327 326 326 327 326 327 326 327 328
313 312 312 312 312 313 312 312 313 312 312 310 309 312 317 313 314 311 319 320 315 314 313 307 304 304 305 316 308 312 315 311 312 314 309 316 318 314 313 315 317 313 316 309 312 312 315 314 311 311 317 315 316 310 305 308 312 313 314 314 316 322 322 320 320 319 321 322 325 325 325 325 326 324 326 324 325 327 327 326 325 323 323 324 324 325 327
312 312 312 312 312 313 312 313 312 310 309 312 314 319 318 313 313 313 316 317 307 307 307 308 308 303 304 307 306 310 316 312 310 312 308 313 317 313 314 311 314 308 312 317 311 309 308 310 314 308 305 311 309 305 307 310 311 313 314 313 315 317 317 316 316 318 319 321 322 324 324 322 323 321 321 322 323 325 323 324 324 322 321 322 324 325 326
312 312 312 312 312 312 313 312 311 311 310 312 315 318 317 316 316 319 320 320 314 308 307 308 309 305 306 302 302 312 317 311 315 315 315 315 312 317 314 311 306 310 318 312 307 310 307 314 310 303 309 305 304 307 310 315 314 315 315 315 319 319 318 317 319 319 326 324 323 324 324 324 320 323 325 322 325 325 324 324 322 322 322 323 325 327 328
312 312 312 311 311 310 307 309 314 313 314 318 317 318 317 318 320 320 317 314 316 317 308 307 304 305 308 306 310 314 313 305 312 311 313 310 310 313 311 309 304 310 309 308 309 307 310 319 309 304 305 303 307 315 318 319 319 319 319 319 321 321 322 322 323 321 318 320 322 322 324 325 322 322 326 322 322 323 322 321 321 321 322 323 325 326 328
312 311 311 309 308 307 308 310 314 319 319 316 317 314 314 315 309 309 310 307 311 312 310 308 303 307 311 307 304 314 311 308 313 308 309 313 308 308 311 308 308 308 302 305 308 316 315 312 308 304 306 312 318 320 320 322 323 324 324 323 321 322 322 321 321 319 317 316 316 319 323 323 324 325 321 322 322 321 322 324 325 323 326 327 328 329 328
309 309 308 309 309 309 313 315 321 319 318 318 317 313 310 312 309 306 307 308 309 305 309 307 304 309 308 306 308 317 312 308 308 309 305 315 308 309 310 302 312 308 303 305 310 315 304 307 309 308 305 311 311 316 320 321 323 323 324 323 322 323 322 322 322 322 320 321 322 323 324 324 325 325 324 324 325 323 323 324 324 325 329 330 330 331 331
308 305 307 309 309 314 319 319 319 318 317 311 313 310 306 312 306 301 313 302 303 308 310 304 310 309 310 307 308 308 316 310 304 304 307 317 316 308 312 309 314 307 300 302 309 314 305 302 306 306 305 309 313 318 320 321 321 322 323 323 322 322 322 324 326 327 323 322 321 320 322 328 327 329 326 322 322 322 321 323 327 328 328 327 328 331 330
307 308 309 309 314 318 318 319 320 318 313 309 309 309 308 301 309 310 307 304 303 304 312 309 312 309 311 311 311 307 316 318 317 315 313 308 318 315 309 304 316 304 302 302 312 312 309 304 305 305 307 313 316 319 319 320 321 321 324 325 324 324 323 322 325 326 324 323 323 323 326 325 326 327 325 324 322 322 322 324 325 327 327 329 328 328 331
312 311 313 315 316 319 319 317 315 312 311 312 303 299 302 305 309 306 307 299 300 306 307 309 306 308 307 310 310 312 313 319 315 313 309 305 314 309 306 308 312 304 301 309 314 310 308 302 302 304 310 315 322 323 321 320 322 321 322 323 324 325 323 322 323 326 327 326 325 323 327 326 325 327 327 326 326 326 326 325 328 329 329 330 329 329 332
310 312 315 314 314 313 315 304 310 310 297 297 295 293 301 296 302 302 303 307 312 308 310 315 313 315 317 317 313 314 312 318 312 309 307 304 313 310 307 307 305 297 305 315 308 305 301 300 301 305 313 319 323 322 321 321 323 323 323 324 326 327 324 323 323 322 324 325 326 329 328 326 326 327 332 330 327 325 324 323 327 330 331 330 328 329 334
314 315 311 312 308 309 310 293 311 304 296 299 296 291 298 298 301 303 301 304 308 307 311 308 310 309 306 313 308 310 311 314 311 310 308 312 309 306 304 298 302 310 314 307 306 300 301 305 306 310 316 318 319 321 322 322 324 323 323 323 323 324 322 322 322 321 321 324 327 327 327 328 328 328 331 331 328 326 327 327 333 330 330 331 330 331 333
308 307 308 304 299 306 298 290 309 300 292 297 301 300 300 298 301 303 302 310 309 307 313 312 311 311 308 315 314 312 312 307 313 306 302 307 304 306 302 301 307 307 303 300 303 303 303 303 310 312 314 315 317 319 321 323 324 322 322 322 322 321 320 320 321 321 322 323 324 326 327 328 327 326 325 325 328 329 328 329 331 329 330 330 330 329 331
306 300 298 294 289 295 296 293 297 294 303 305 303 305 303 304 304 305 310 312 310 311 310 312 313 313 309 315 309 309 312 311 308 307 308 307 301 299 306 312 309 301 301 301 299 298 300 304 307 309 315 315 316 319 321 322 323 322 320 319 320 322 322 322 322 323 324 325 325 325 326 327 326 325 324 325 325 326 329 334 331 330 331 329 329 330 332
306 309 303 299 294 298 305 295 298 303 305 307 307 308 307 308 310 312 316 314 311 313 313 315 313 313 310 311 310 310 310 312 306 310 308 301 300 304 310 303 298 299 297 297 299 301 303 308 312 315 316 316 318 318 319 319 319 320 321 321 322 323 324 324 325 325 325 325 325 324 328 327 327 326 325 324 325 328 332 332 330 330 328 325 329 331 331
296 306 308 292 292 298 297 303 307 307 307 307 308 310 316 315 314 310 315 315 314 314 314 312 311 312 309 314 311 306 308 311 305 305 309 306 309 303 297 302 300 301 302 300 301 305 308 309 312 315 317 319 320 320 320 320 319 319 319 319 320 320 320 320 321 322 324 323 323 323 329 328 327 327 326 325 325 325 324 328 330 329 327 327 330 330 330
307 302 296 296 303 303 303 306 305 302 305 308 309 309 310 309 308 310 313 316 314 313 315 312 310 309 305 311 309 307 303 309 299 299 307 304 299 296 296 294 297 297 303 304 305 308 309 314 316 317 318 316 318 318 318 319 320 319 318 319 319 320 322 322 323 323 323 323 324 325 326 328 328 328 327 324 323 325 329 330 328 327 328 329 330 329 329
299 298 304 303 303 304 306 307 305 303 307 308 308 308 309 308 308 310 314 312 315 316 314 312 313 307 306 309 298 303 302 307 305 301 302 300 302 302 300 297 300 301 303 306 308 311 313 315 317 315 316 317 319 319 319 320 321 321 321 320 321 321 321 320 321 322 323 325 325 326 328 328 329 328 326 325 325 329 328 320 322 325 328 330 330 329 328
307 303 302 309 304 304 305 301 302 303 304 304 306 306 308 308 309 309 316 314 314 311 309 305 308 305 300 298 296 293 299 306 303 302 301 300 304 301 299 298 303 307 307 311 312 314 315 316 315 315 317 319 320 319 320 319 320 321 322 323 324 324 326 327 326 323 324 324 326 326 327 329 330 330 328 331 331 326 324 321 321 326 330 331 331 329 328
297 295 299 305 307 307 306 307 307 306 306 308 308 310 310 309 311 312 317 314 313 307 304 309 306 301 296 294 300 304 306 302 300 301 299 303 306 301 302 305 307 310 310 309 312 315 316 316 318 317 318 317 318 320 321 321 320 321 322 322 323 325 326 326 328 328 325 324 325 327 327 328 327 327 325 324 325 323 320 323 326 326 329 331 331 330 329
Wind_Speed
16 16 16 18 20 20 20 21 21 21 25 16 14 12 9 7 8 9 8 10 10 8 8 8 10 11 11 14 18 12 2 7 6 7 5 7 7 9 7 8 8 8 10 2 5 3 7 8 6 6 5 6 10 6 1 10 9 4 7 9 11 9 3 6 7 8 11 10 8 10 9 9 8 8 8 7 7 9 9 8 6 7 3 1 3 5 3
16 15 15 17 19 19 19 20 19 18 17 12 12 10 9 11 11 9 7 10 10 10 9 9 11 10 13 16 17 15 9 7 10 9 9 7 9 8 6 5 6 10 5 4 8 2 7 5 11 4 5 2 3 9 4 6 5 7 7 7 9 4 4 3 5 6 6 8 7 8 8 7 7 4 3 6 5 10 8 8 7 6 5 6 3 4 2
15 15 15 16 17 19 19 18 18 16 13 11 8 7 9 10 9 10 6 8 8 10 9 11 10 11 14 13 14 14 9 6 11 8 10 8 11 6 8 9 7 9 5 6 10 8 10 8 2 11 5 2 2 9 3 5 6 11 9 10 6 6 7 7 6 7 7 6 7 6 5 9 6 3 4 2 10 1 4 7 4 4 4 5 5 4 6
14 15 15 15 16 18 18 18 18 17 14 13 8 7 7 5 8 5 8 9 8 10 10 12 12 12 12 11 12 12 14 10 13 11 13 10 10 10 11 7 3 3 4 6 7 8 6 8 3 5 7 7 8 9 4 6 9 14 10 8 6 5 8 3 3 5 8 4 9 7 7 8 9 4 5 8 6 8 9 5 3 6 3 6 2 1 9
14 14 15 14 15 17 17 18 19 18 15 10 7 6 6 7 8 7 8 4 10 8 8 11 12 12 10 10 7 15 18 12 10 17 10 11 13 9 10 7 4 8 10 8 9 10 11 9 12 11 14 4 5 9 5 3 6 7 8 5 5 6 9 4 5 7 8 11 12 10 6 9 10 8 7 4 4 9 10 7 7 11 2 3 1 5 8
13 14 14 14 14 15 16 17 20 20 18 15 6 7 7 6 6 10 8 4 4 7 8 11 12 15 14 11 11 15 10 7 12 10 11 5 10 11 7 11 10 10 9 11 10 9 9 10 11 14 10 11 4 10 14 8 13 8 6 8 7 5 8 7 4 8 8 9 10 11 9 4 7 9 6 5 5 7 9 10 2 10 5 5 6 1 3
13 13 14 15 14 14 15 17 18 21 23 17 5 6 7 9 8 10 14 9 8 10 11 15 14 14 12 9 12 13 13 14 15 9 13 7 10 12 11 11 11 11 8 10 12 8 5 11 11 10 8 9 7 9 6 2 11 9 9 5 9 9 4 1 3 8 9 8 7 9 8 8 7 8 6 2 3 2 7 8 9 6 6 5 7 7 6
13 13 14 14 13 13 14 16 17 20 25 18 7 8 10 7 9 10 11 12 12 11 10 10 9 9 8 7 8 10 12 14 11 11 13 7 9 6 12 12 12 14 12 12 10 9 11 11 4 6 10 11 9 9 7 6 7 6 9 5 10 6 3 4 4 5 6 6 6 9 9 4 6 8 9 9 1 5 7 9 7 6 6 5 5 8 7
12 13 14 13 12 11 12 13 15 18 18 9 8 8 8 9 8 8 9 10 9 10 11 10 10 9 9 9 9 11 13 14 12 16 10 13 10 12 11 10 14 12 14 17 15 10 10 12 7 10 10 11 7 5 4 6 9 8 10 5 9 7 3 5 7 2 5 3 5 9 8 5 5 6 8 4 5 5 6 6 8 7 2 4 2 2 5
12 12 13 13 11 10 11 11 13 15 18 6 8 7 9 9 9 10 8 9 9 11 11 12 10 9 7 8 10 10 14 13 14 14 12 12 13 12 12 12 8 10 10 10 9 4 14 15 9 8 14 11 6 8 11 6 4 5 10 6 6 3 3 4 5 4 5 4 4 4 8 5 5 6 4 7 5 8 5 7 12 2 7 5 5 4 3
12 12 12 12 11 11 10 10 11 12 10 7 7 7 9 9 10 9 7 9 8 10 10 10 11 9 11 11 14 13 14 15 13 13 7 16 14 13 11 10 12 7 13 9 6 6 13 8 6 7 7 5 11 11 8 11 6 8 8 6 8 5 8 9 2 7 5 3 2 4 4 7 4 5 8 4 3 7 8 2 8 5 5 3 0 5 2
12 11 12 12 11 10 9 10 10 8 7 7 7 8 7 8 7 6 6 8 9 9 9 10 10 11 14 13 13 12 12 13 14 9 13 13 10 9 13 13 12 10 4 5 5 10 16 2 12 6 6 9 11 13 12 13 10 6 8 10 9 12 9 4 3 7 7 1 3 4 6 4 9 5 5 2 4 7 5 14 12 6 8 4 3 7 2
12 10 12 12 11 9 7 8 8 7 7 7 7 7 7 8 6 6 6 8 9 9 9 10 13 17 16 16 13 9 9 11 11 11 12 10 13 13 8 11 13 12 7 10 2 5 7 4 5 7 12 15 17 15 12 12 12 13 8 9 7 8 8 7 8 6 4 5 5 2 5 2 8 4 5 5 7 8 10 8 13 8 8 7 6 8 6
12 11 12 11 11 9 8 8 8 9 6 6 6 6 7 6 6 6 5 6 8 9 11 13 14 13 13 17 12 10 8 8 9 12 13 8 12 13 12 15 12 5 7 9 8 5 6 1 8 6 8 7 8 8 11 13 12 12 11 7 6 7 6 6 8 3 7 4 6 5 7 7 8 6 8 7 7 9 8 7 4 8 6 7 8 8 6
12 12 12 11 10 10 7 7 8 8 7 6 6 7 6 5 4 5 7 6 9 10 9 9 9 11 12 12 13 13 13 11 9 11 15 11 11 11 14 14 10 10 9 10 6 4 5 5 7 8 5 6 7 6 5 8 8 12 8 8 9 4 5 2 5 4 4 6 7 4 8 8 7 9 7 9 12 10 2 4 8 7 4 5 9 9 4
13 13 12 11 9 9 7 7 8 7 6 6 7 6 5 4 3 5 6 7 7 8 5 5 11 13 9 9 11 11 6 7 9 9 10 10 14 14 13 14 13 12 14 8 2 2 7 7 9 9 8 7 6 6 6 5 9 13 10 6 5 2 6 4 6 7 7 8 8 4 7 6 3 11 11 10 7 3 3 3 4 3 4 2 7 8 5
13 13 12 11 9 9 7 7 6 6 4 3 6 5 5 4 4 4 5 6 8 12 14 17 14 11 8 8 8 9 5 8 8 9 8 10 13 13 13 13 13 14 13 10 7 5 6 8 7 8 8 6 7 7 6 6 7 3 13 10 8 7 6 5 7 9 7 7 6 7 3 4 4 7 10 7 4 7 4 7 4 7 10 7 4 6 6
12 13 12 11 9 9 8 6 7 4 3 1 5 6 6 4 3 4 5 6 8 11 11 13 12 8 7 6 9 8 9 9 8 7 9 10 11 9 10 8 11 13 9 10 6 8 9 9 10 9 10 4 6 1 4 0 8 9 8 6 7 7 7 6 9 7 8 9 6 6 5 5 7 4 2 4 2 2 7 5 4 4 11 7 2 4 4
12 13 12 10 9 8 7 6 6 4 2 1 5 7 7 5 3 3 4 6 7 10 9 13 14 13 10 9 10 9 9 9 7 7 7 8 7 8 9 8 10 8 11 10 8 9 9 9 7 8 8 5 1 7 4 3 6 8 7 7 8 8 4 5 6 8 9 7 9 6 6 4 7 3 6 6 4 7 3 6 4 6 12 13 9 9 3
11 12 12 10 8 8 8 7 5 3 4 3 4 5 5 3 3 3 4 6 5 10 12 14 12 14 10 11 9 8 8 9 7 8 7 9 6 9 6 8 6 8 3 8 12 8 9 11 9 5 9 8 3 3 6 9 7 9 7 7 9 7 5 7 8 7 7 6 8 6 3 3 1 3 6 9 6 4 5 5 7 7 9 18 15 11 11
12 12 12 11 9 8 8 8 5 3 5 3 3 5 6 2 2 4 4 6 6 8 11 10 7 13 13 11 12 13 11 9 6 7 6 10 7 3 5 7 3 5 6 6 12 11 8 10 8 7 5 6 3 2 7 6 8 11 11 8 8 2 8 6 7 4 7 6 6 2 6 4 4 5 2 6 7 5 5 5 6 5 8 10 10 12 14
12 11 12 11 9 8 7 7 4 5 6 3 3 5 6 2 3 3 3 3 7 10 10 17 18 16 16 16 15 14 14 14 13 8 7 8 5 7 6 7 5 4 4 6 5 8 8 8 4 7 8 7 5 6 3 7 9 4 12 6 8 2 3 6 5 7 5 7 5 3 2 4 9 9 8 8 7 6 6 4 6 6 8 8 9 11 12
12 11 11 10 9 8 6 6 5 5 6 4 4 5 6 5 5 3 4 8 8 11 13 14 15 15 16 18 18 16 16 14 14 12 8 7 7 6 7 6 6 3 5 5 5 7 7 9 7 6 8 7 7 6 7 7 7 3 5 9 5 3 6 3 6 4 4 4 4 4 3 2 6 9 7 8 8 7 4 4 6 6 7 7 10 10 10
12 11 10 9 8 8 7 5 6 5 5 5 6 5 5 5 6 6 6 7 8 10 11 12 11 9 10 12 10 16 15 14 14 12 8 7 8 6 6 7 6 6 1 5 5 6 7 6 6 3 8 4 4 7 8 7 8 5 6 5 7 8 5 5 5 4 2 3 7 5 4 6 5 6 7 7 6 6 4 5 6 8 8 7 10 10 9
12 11 10 9 9 8 7 6 6 5 5 5 6 7 6 7 7 5 5 6 5 7 8 8 11 11 11 9 8 8 6 10 10 12 12 10 9 8 8 7 8 7 8 8 5 6 4 6 7 6 7 2 3 7 4 5 4 2 7 4 3 7 8 7 7 8 6 1 5 6 7 4 3 5 4 5 8 8 6 5 5 6 7 8 8 11 9
12 11 10 10 7 7 6 6 5 4 5 6 7 6 5 6 5 4 4 5 6 6 7 8 8 11 12 8 5 10 12 12 11 12 13 12 11 11 12 10 9 7 7 7 7 7 6 6 6 7 6 2 1 5 4 3 5 4 5 1 3 7 3 6 4 7 5 3 2 2 1 3 2 1 1 1 9 9 8 7 6 5 9 11 11 11 11
11 10 9 8 8 7 5 5 6 5 5 5 6 7 7 6 6 6 5 5 6 5 9 9 8 12 14 21 16 12 9 9 6 10 11 13 12 10 10 9 8 6 7 7 6 6 5 6 6 8 7 4 3 5 4 4 5 4 5 5 4 3 7 2 4 5 6 5 4 7 6 4 5 8 6 6 11 13 9 7 7 6 7 9 11 10 10
10 8 7 8 8 7 5 4 6 5 4 5 6 7 7 7 7 7 6 6 6 7 9 10 9 12 17 20 19 16 12 12 12 10 9 11 13 10 10 9 7 7 6 7 7 6 6 7 8 6 8 7 6 6 5 6 2 5 6 6 2 6 6 3 6 5 4 2 2 6 3 3 1 2 7 9 8 9 11 12 12 9 7 7 12 11 10
10 7 6 3 5 5 5 4 5 5 5 5 5 6 8 10 9 9 8 5 5 6 8 10 12 12 8 7 9 6 8 13 14 13 12 11 11 11 10 8 7 7 8 7 7 6 7 8 6 6 6 3 5 7 4 6 7 8 6 4 7 4 4 2 7 8 8 1 3 6 2 6 3 2 9 8 8 8 7 8 12 14 13 11 10 9 10
10 5 6 6 5 6 4 5 4 5 6 5 4 5 6 4 8 8 5 4 4 4 6 7 8 5 9 10 12 11 11 9 12 15 15 12 11 10 10 8 7 6 6 6 6 8 7 7 6 7 2 4 7 5 7 6 7 6 4 6 2 9 7 8 10 7 6 7 2 3 5 4 6 5 4 7 7 7 8 9 9 9 9 12 10 8 7
7 8 7 7 6 5 5 5 5 5 3 5 4 4 5 4 4 1 5 4 4 4 5 6 10 10 11 11 12 13 12 10 10 10 13 13 11 11 9 8 7 7 7 7 6 7 5 8 7 8 6 3 2 5 7 7 7 7 3 3 8 4 3 4 6 7 10 8 4 2 2 2 7 9 7 6 6 6 7 8 8 8 8 13 13 10 9
6 9 8 7 6 5 4 5 5 7 6 6 8 1 4 4 2 3 2 3 3 4 4 7 8 6 6 6 8 7 8 10 9 8 7 8 10 9 10 10 7 7 6 7 7 6 8 7 8 5 8 5 4 7 7 8 9 7 9 9 3 2 3 4 3 3 4 9 9 7 6 6 6 6 4 6 7 7 9 8 9 8 8 10 13 12 12
10 8 7 7 5 5 5 6 6 6 6 8 18 19 11 13 8 6 4 3 4 5 4 6 7 6 5 7 8 6 6 6 8 7 8 9 9 8 9 9 6 6 7 6 6 7 6 7 5 8 5 5 5 6 8 10 9 6 7 4 7 7 5 7 6 4 4 4 6 8 4 5 6 6 6 7 8 9 10 10 10 9 9 11 11 11 10
9 8 7 6 5 4 5 6 6 7 8 6 7 9 9 17 12 11 5 4 4 4 4 5 6 6 8 6 9 6 6 6 6 5 7 8 6 7 7 7 7 7 8 9 6 6 6 6 8 7 3 5 6 7 10 10 10 9 9 7 4 9 4 4 2 2 4 4 2 2 6 9 2 3 6 7 8 10 10 9 11 12 11 11 11 11 10
8 7 6 5 5 4 6 6 5 5 5 5 8 4 8 16 12 9 7 5 4 4 6 7 5 7 7 4 6 4 3 6 5 5 6 5 6 6 4 6 6 7 7 7 7 8 8 7 4 6 8 4 8 9 8 9 11 11 9 9 7 5 6 5 5 4 4 2 2 4 7 9 5 7 7 9 9 10 11 10 11 11 11 11 11 12 11
7 7 5 5 2 4 5 5 6 5 5 5 3 7 11 10 8 6 7 5 4 4 5 5 5 9 7 6 3 1 3 9 4 4 4 3 6 4 6 6 9 9 4 7 8 7 9 5 6 9 5 8 10 9 8 7 8 7 7 8 7 6 6 6 4 5 4 1 0 2 6 9 8 7 6 8 7 9 10 10 11 12 11 11 10 10 10
8 6 3 1 3 4 5 6 5 8 1 5 7 8 9 9 4 3 5 5 6 6 6 6 7 8 7 8 5 4 4 5 1 4 4 5 2 2 6 6 9 3 6 8 7 8 6 2 6 10 11 13 10 9 8 7 8 8 9 9 6 6 7 7 7 7 5 5 6 6 5 4 4 8 10 6 8 10 11 12 12 12 12 12 12 11 11
7 4 4 4 4 4 4 6 5 9 14 11 10 7 3 5 4 4 3 5 5 6 6 6 9 9 8 8 7 2 4 3 3 5 3 2 4 7 5 6 5 3 9 8 6 3 3 2 6 10 11 9 8 6 6 7 7 7 7 6 7 9 8 5 4 6 7 8 9 9 7 7 3 6 4 9 10 12 10 9 9 10 10 11 12 11 11
4 3 3 5 4 3 1 5 9 15 8 6 4 3 4 3 3 4 5 5 3 7 8 8 11 9 9 8 9 6 8 5 4 2 5 4 1 3 2 6 2 2 3 6 3 4 7 7 7 8 11 9 10 9 7 2 4 1 2 4 7 5 4 6 6 5 5 5 5 5 7 7 8 8 7 4 8 9 10 9 9 8 10 10 10 10 10
4 4 4 4 6 2 3 5 9 8 5 5 4 3 3 4 5 3 5 4 5 7 5 8 9 9 10 9 8 6 0 4 6 2 1 3 3 1 2 3 3 3 8 9 3 5 7 7 6 8 11 9 8 6 5 7 8 7 7 5 7 6 6 6 5 5 6 6 7 11 9 8 6 5 8 8 3 10 10 12 8 8 12 12 11 10 11
4 3 4 2 4 0 4 6 6 5 4 4 4 3 3 3 6 4 3 7 6 4 6 7 5 6 8 9 7 8 3 2 3 4 4 2 2 0 1 4 2 1 5 6 2 3 4 7 9 10 9 6 6 5 7 8 8 9 9 9 9 7 8 9 6 7 7 7 8 8 7 9 8 7 7 8 8 4 11 12 10 9 12 11 14 14 12
1 3 4 4 5 3 2 5 5 4 4 3 2 4 3 4 4 5 5 5 5 3 4 5 6 6 5 6 6 5 3 3 3 3 4 4 5 5 5 3 3 4 5 0 0 1 2 6 7 9 7 7 7 5 5 7 8 9 10 9 8 8 9 10 10 9 9 9 8 8 7 7 9 7 7 5 6 4 4 12 11 8 10 10 12 11 12
9 8 7 5 3 4 4 3 5 3 2 2 2 2 3 3 6 7 5 5 3 5 1 1 4 2 2 2 4 5 4 4 4 4 5 3 4 3 4 3 2 4 3 3 5 3 6 6 8 9 6 5 7 5 7 8 7 8 9 9 9 9 11 12 12 12 13 12 12 9 6 5 4 3 6 9 9 9 9 15 12 8 7 11 11 9 12
4 4 5 4 4 4 3 2 3 3 2 3 3 2 6 8 6 5 6 4 3 5 4 5 3 3 3 4 4 3 5 5 3 4 4 1 2 4 4 4 6 1 2 5 5 8 8 7 8 7 1 6 7 7 7 8 9 8 9 8 9 11 12 14 14 13 13 11 10 9 7 5 3 0 1 6 11 12 11 9 6 8 8 8 8 8 13
4 4 3 2 1 0 1 1 2 3 4 6 6 8 6 7 3 3 5 2 3 2 0 4 4 4 6 1 3 4 3 3 2 5 5 4 5 4 5 5 3 2 4 6 6 7 6 8 6 7 6 6 4 7 8 10 10 10 9 9 12 15 15 13 13 12 12 11 10 9 7 6 5 5 4 3 5 7 9 5 4 6 3 6 8 8 10
5 3 2 1 2 2 2 1 2 3 6 6 7 7 7 7 6 5 2 3 5 1 2 2 3 1 5 3 3 2 4 4 4 4 5 3 4 5 3 2 1 5 6 6 7 9 8 6 5 6 6 5 4 5 7 7 6 7 9 10 9 9 11 12 11 10 7 6 8 9 7 6 7 6 5 5 6 8 8 6 6 7 6 6 8 10 11
3 2 1 1 3 2 4 3 7 6 4 4 6 7 6 4 3 7 10 5 4 3 3 1 4 4 4 0 3 3 4 4 5 2 2 6 6 2 2 4 7 6 7 9 8 7 4 6 8 8 6 2 3 5 6 5 4 4 5 6 6 7 7 8 9 9 8 9 10 9 8 9 8 7 7 7 6 7 3 10 12 11 10 12 9 10 11
2 1 1 2 3 3 7 9 7 8 8 8 8 4 4 7 5 5 11 5 4 4 3 3 5 2 4 2 3 4 1 2 4 5 4 4 1 3 2 5 6 6 6 7 8 3 4 1 1 4 5 5 4 4 4 2 1 4 5 6 7 8 8 9 10 10 10 10 10 9 9 10 9 10 11 12 11 13 14 10 10 10 9 8 8 11 12
3 1 2 3 4 5 7 6 7 10 8 7 6 7 7 8 7 6 4 4 4 4 6 6 5 4 5 0 4 3 6 4 4 2 3 4 4 5 4 5 6 8 6 3 3 2 1 1 5 1 2 2 1 1 2 2 4 5 6 6 7 7 7 7 8 9 10 9 9 9 10 11 10 9 9 11 12 11 11 9 9 9 9 10 11 13 12
1 2 3 5 5 6 6 6 7 8 5 6 6 7 7 8 7 5 2 4 2 2 1 4 3 4 3 2 2 3 5 4 4 1 5 7 7 6 7 10 7 6 1 1 3 4 3 2 1 0 2 2 1 2 4 4 4 5 6 7 7 6 7 8 9 9 9 7 8 8 9 10 9 9 10 11 11 9 9 9 7 8 9 10 12 13 12
2 3 4 7 9 7 5 6 5 6 5 3 4 7 5 5 3 3 4 3 4 4 4 3 2 2 2 3 1 1 3 3 6 8 7 7 5 7 8 10 5 5 3 3 3 2 3 3 3 4 2 2 3 4 4 4 6 6 6 7 7 7 6 7 7 8 9 9 8 7 6 6 6 6 7 6 5 9 10 10 13 13 12 12 13 13 11
1 2 5 7 9 10 10 9 8 8 7 6 5 3 6 7 3 3 2 3 3 5 4 2 2 2 1 3 5 4 4 1 5 5 9 7 5 7 8 6 1 2 3 3 5 3 4 4 4 5 5 5 4 5 5 5 6 7 7 7 7 7 7 7 6 5 6 6 7 8 7 6 4 2 2 2 3 6 7 9 11 12 11 11 11 12 12
Wind_Direction
325 329 331 331 330 332 335 340 342 350 351 359 346 324 302 283 302 114 193 151 204 214 246 224 224 231 245 253 253 265 43 273 253 270 184 219 208 254 208 246 245 232 279 45 298 229 253 275 178 269 181 247 91 96 333 78 278 286 244 266 51 308 271 293 280 303 290 272 282 285 250 247 231 220 254 262 287 298 291 292 297 292 262 239 139 143 226
323 326 329 330 328 329 333 338 341 348 12 351 322 317 317 320 302 288 191 173 213 238 232 229 230 230 238 244 260 262 252 185 240 236 249 230 175 238 277 257 255 286 222 297 258 93 262 207 286 194 45 52 130 152 302 66 285 277 27 293 49 314 55 328 312 286 291 282 284 250 274 255 262 81 337 318 293 331 312 286 317 294 282 137 197 233 182
322 324 325 328 326 327 331 334 335 342 352 351 322 315 315 296 277 258 216 179 223 233 227 251 251 223 228 236 240 256 227 211 264 255 227 194 275 240 205 258 257 225 134 258 250 290 311 330 168 287 314 272 183 59 326 49 236 62 26 354 26 300 315 299 306 315 301 314 334 313 336 310 322 45 344 343 292 252 305 262 241 236 269 266 246 146 131
321 321 323 324 324 324 328 330 331 333 343 343 325 305 298 275 298 272 218 187 211 226 254 264 265 275 288 264 239 240 261 201 200 249 273 279 218 227 286 246 235 284 226 211 262 265 237 243 260 189 196 233 208 132 168 171 267 73 67 14 346 307 291 270 44 311 303 271 208 255 250 258 262 311 338 316 305 287 267 274 196 253 243 228 78 257 136
318 319 320 322 320 322 326 328 327 327 333 352 318 278 239 306 279 306 314 262 198 239 222 234 247 261 262 260 286 257 218 254 220 185 235 219 271 272 214 236 184 216 272 268 243 216 252 232 278 273 306 354 76 129 191 184 172 63 303 284 296 267 256 176 219 248 269 294 290 289 250 270 277 285 300 287 290 295 276 273 310 324 284 265 69 152 151
317 318 318 320 319 320 327 327 326 326 326 339 298 295 276 274 318 305 26 317 289 262 230 227 232 238 238 266 281 298 298 189 260 183 207 259 214 246 196 248 262 276 217 212 218 225 235 280 238 219 219 286 265 207 171 225 135 167 239 240 230 233 282 63 305 297 295 292 294 292 282 274 292 275 252 295 317 282 277 287 319 311 265 279 161 95 139
317 317 318 318 318 321 326 327 327 327 324 329 271 298 306 303 337 311 359 318 315 286 300 314 318 308 287 270 255 259 264 245 218 224 167 196 252 199 253 206 230 245 267 301 323 325 255 204 236 306 322 268 269 283 254 212 128 198 209 247 235 219 197 167 323 323 288 273 298 297 321 316 303 298 302 205 275 8 307 281 259 271 351 52 118 103 121
316 319 319 316 316 322 325 327 328 328 330 318 268 255 286 336 345 324 335 314 297 296 294 281 289 284 284 287 294 292 274 266 267 242 246 189 210 208 233 259 203 213 233 227 214 231 244 277 264 169 252 263 263 262 305 332 193 266 306 269 39 318 69 316 9 289 300 300 290 292 280 276 278 274 265 276 319 352 353 341 325 311 96 91 145 158 128
316 321 317 314 316 322 324 327 330 328 342 333 343 323 5 342 315 317 305 305 296 308 298 283 265 256 237 263 269 261 258 268 269 274 241 241 242 189 232 234 262 268 239 215 190 193 260 296 312 275 226 225 214 238 227 232 277 214 228 163 150 221 166 215 178 308 297 250 296 302 286 232 260 284 266 250 38 328 1 330 341 16 350 131 197 211 163
317 317 315 314 317 319 320 328 327 334 325 300 332 322 355 331 330 324 308 285 297 287 284 278 281 263 269 259 251 246 253 253 256 257 262 259 242 255 201 224 244 247 273 284 313 333 268 248 214 210 260 288 339 235 262 264 222 273 273 299 293 256 313 268 289 285 277 285 286 290 284 279 264 244 231 273 124 94 51 360 320 118 270 159 227 246 207
317 315 316 315 313 316 323 325 321 339 342 355 340 324 333 359 334 326 307 290 288 274 266 267 261 260 270 241 241 237 257 262 248 252 246 262 240 222 246 228 197 237 257 250 161 254 239 262 301 352 357 346 302 316 298 270 270 273 293 308 285 285 231 235 342 301 294 345 347 349 295 254 270 5 302 234 169 149 138 200 246 175 198 242 138 320 190
316 320 318 315 312 312 321 315 313 333 346 329 315 297 320 358 320 292 289 285 286 288 272 267 269 259 230 238 245 255 251 250 260 273 287 292 296 230 233 269 294 228 171 9 187 223 244 61 349 327 310 290 289 283 267 275 274 220 247 269 283 293 320 287 209 263 284 220 156 256 268 266 346 303 350 343 256 262 211 180 224 160 155 227 157 113 55
313 319 317 313 309 312 313 308 302 314 334 328 319 302 329 348 312 307 307 292 283 288 288 273 276 290 300 285 278 292 265 259 278 287 290 282 272 286 301 281 240 264 337 301 248 218 262 285 242 245 247 243 226 220 251 254 252 270 242 210 256 272 265 298 280 242 230 273 115 259 234 180 241 257 270 265 266 254 268 211 178 199 159 164 130 115 144
316 319 316 311 305 303 306 307 302 300 316 327 313 304 317 328 327 314 304 305 280 284 298 297 289 289 310 317 292 284 286 261 266 284 279 271 274 273 271 285 307 165 185 274 269 227 234 228 281 228 220 254 293 302 276 285 272 239 214 239 224 239 275 293 294 337 287 268 249 280 105 183 219 221 211 215 228 229 228 258 140 172 141 154 127 116 144
315 317 317 313 305 296 300 303 298 295 306 325 302 296 298 317 327 316 301 276 280 287 289 289 290 285 301 306 295 252 242 261 250 240 233 250 269 257 257 267 282 279 255 206 231 195 255 241 229 249 238 249 249 247 206 232 233 253 237 207 203 177 250 292 320 272 249 280 274 221 166 214 195 219 205 226 239 263 289 253 133 188 161 98 117 129 142
319 317 312 311 306 298 296 297 288 283 299 320 287 285 297 359 341 290 280 269 298 287 248 276 324 339 325 295 303 308 277 261 256 263 265 237 236 246 245 254 253 248 257 262 276 247 213 234 255 255 251 242 261 277 233 251 247 196 204 228 289 227 191 254 263 293 296 263 255 269 294 20 124 173 205 209 248 252 146 238 154 207 225 122 122 142 158
320 320 313 305 297 292 291 291 289 272 283 0 311 312 311 29 322 306 294 271 241 254 294 310 312 313 308 293 292 276 265 258 252 263 254 234 224 230 237 228 247 261 267 228 212 233 229 221 242 268 262 260 265 254 285 275 301 286 169 187 223 235 229 216 222 246 252 280 291 287 333 122 219 177 213 214 225 229 210 244 150 144 160 203 165 147 155
319 321 314 303 291 285 288 296 301 264 242 337 300 301 305 315 334 303 250 260 269 274 279 283 284 275 276 306 304 321 325 311 292 273 278 290 299 248 239 234 233 217 264 259 227 222 236 239 236 239 258 210 262 54 259 55 245 236 241 207 196 194 239 243 264 250 229 215 250 264 129 105 156 192 178 219 248 191 237 259 92 129 123 163 177 92 73
316 316 315 308 293 283 283 293 295 264 239 234 290 280 257 263 248 268 298 280 267 260 279 301 306 299 301 303 281 289 291 301 313 309 287 267 244 266 256 263 290 237 178 253 254 238 235 232 226 250 258 223 310 268 354 261 268 312 313 284 252 234 217 249 248 249 265 268 263 255 67 357 1 306 8 55 157 232 282 82 107 105 111 130 126 114 136
313 312 313 308 298 286 283 290 293 265 248 222 279 289 303 288 278 297 278 285 288 281 287 285 291 286 298 299 289 269 266 254 244 257 271 265 35 322 273 270 238 288 248 206 241 236 237 237 228 227 243 248 210 320 247 254 265 265 270 250 276 280 237 229 226 229 237 249 279 293 245 119 301 51 65 12 308 92 133 127 120 112 112 128 140 156 182
310 311 307 303 295 288 286 289 284 232 232 174 234 287 291 330 274 261 266 278 284 289 279 260 285 321 326 299 284 294 286 281 283 292 305 308 356 315 239 240 236 216 239 213 224 220 226 238 222 222 246 258 118 257 254 280 248 213 238 266 279 275 252 244 248 285 278 230 246 64 36 136 97 72 62 87 91 125 122 144 124 141 129 118 133 151 161
307 306 306 300 292 289 285 282 261 226 227 198 250 273 266 298 269 290 286 255 259 254 274 306 306 292 287 284 277 271 272 272 281 305 307 300 300 277 296 329 315 278 293 339 282 227 220 246 232 246 236 224 163 248 235 240 249 252 193 196 236 42 306 44 328 10 332 19 61 190 38 17 81 95 119 114 130 145 148 145 141 151 111 114 128 130 141
305 298 300 300 288 280 284 284 248 221 222 203 225 260 278 318 301 294 266 270 259 260 266 269 273 272 264 257 249 248 249 255 260 260 267 277 284 285 272 267 261 298 348 26 344 326 337 326 264 214 241 238 245 238 202 243 267 262 217 173 281 74 276 16 324 276 313 248 118 119 202 265 112 128 118 149 150 152 161 146 138 117 126 142 133 137 134
302 299 296 297 292 279 281 270 227 211 218 202 226 267 281 299 307 302 290 271 269 281 277 251 242 254 254 259 241 216 228 239 238 249 254 260 266 271 277 267 284 294 227 45 349 321 334 317 308 307 261 235 219 230 246 215 250 243 218 215 219 257 247 257 252 284 301 246 154 216 210 154 248 110 132 129 151 137 149 128 121 129 140 123 122 135 153
304 296 296 293 287 282 269 240 215 216 207 212 240 258 267 274 252 258 278 303 302 317 309 315 288 279 271 267 342 319 231 218 223 228 233 227 239 258 262 21 1 345 338 335 324 306 257 270 264 239 254 294 240 259 192 292 242 274 278 327 327 219 166 241 220 253 223 3 25 356 31 75 81 116 125 161 129 126 124 126 120 124 126 128 141 139 161
300 293 287 277 271 270 244 207 206 215 206 211 249 254 248 264 308 317 289 274 265 261 279 286 294 291 268 268 252 269 226 207 216 223 219 229 224 233 260 282 288 334 316 312 301 276 286 263 251 267 255 209 332 286 272 168 285 103 279 40 92 48 121 247 167 233 216 143 181 311 42 15 315 177 115 159 141 138 142 148 151 158 145 150 161 156 159
296 289 282 273 265 246 197 196 210 221 210 204 225 242 257 270 281 285 273 299 308 265 224 247 287 300 338 327 309 297 309 301 243 214 217 218 226 221 237 254 264 274 277 283 268 264 258 269 266 243 228 258 161 252 284 267 259 264 255 209 144 188 235 298 313 255 234 256 204 184 221 225 185 218 168 143 129 142 155 153 169 183 163 166 155 160 161
300 291 280 271 251 204 188 196 215 221 204 208 245 252 260 262 262 264 263 258 260 290 317 306 300 308 322 291 276 272 251 236 250 258 231 212 209 219 229 230 242 253 245 240 253 253 258 255 236 248 258 239 247 233 175 265 333 276 270 283 157 236 255 241 252 261 276 316 269 142 224 263 322 283 152 144 147 154 162 169 169 187 178 178 151 161 163
292 283 263 190 161 172 186 199 215 221 168 202 244 262 261 246 243 237 231 231 251 270 281 284 284 277 267 301 325 294 228 219 226 233 238 236 215 205 212 222 231 241 242 249 270 281 263 249 256 252 241 286 269 251 244 238 234 243 247 232 265 272 63 275 280 318 289 150 34 334 210 259 136 260 140 151 160 150 165 160 168 173 181 176 164 157 152
278 243 155 145 155 161 160 174 163 149 174 216 244 260 267 195 187 204 204 218 214 245 275 296 300 293 320 300 275 260 255 234 218 216 221 227 232 216 202 204 219 227 249 253 250 245 240 258 253 252 180 109 231 258 248 250 249 254 268 257 266 33 32 12 2 351 314 344 34 171 254 246 87 343 158 155 154 165 169 162 172 165 166 147 158 150 157
266 166 151 150 160 164 177 187 192 173 193 229 228 240 244 193 108 276 131 206 201 235 270 276 273 295 291 261 253 251 251 237 210 217 215 218 222 224 207 197 205 204 220 231 245 255 268 239 234 248 238 133 284 244 244 239 237 229 268 69 63 8 17 354 14 6 352 323 311 326 241 242 118 182 208 151 159 175 149 152 154 161 163 138 143 172 162
178 156 159 162 172 185 196 205 217 203 227 226 218 270 14 27 57 21 83 230 174 228 255 284 285 266 279 267 199 226 231 223 211 199 220 208 218 213 217 192 201 196 227 235 226 239 234 255 256 246 243 142 159 246 239 238 240 220 120 94 67 350 331 277 221 293 312 342 336 279 237 218 198 156 210 189 172 167 150 147 155 151 145 142 153 166 167
160 152 161 177 184 197 218 228 236 246 235 297 315 301 244 221 252 263 194 195 216 242 259 276 268 296 274 305 314 190 225 202 214 194 216 173 229 190 221 179 198 201 173 231 227 239 227 231 239 249 238 111 196 232 240 233 233 218 231 175 134 100 75 40 7 31 314 312 3 336 292 261 207 182 193 167 174 157 150 163 155 147 155 143 154 154 154
153 163 167 183 193 214 207 238 241 254 275 277 256 240 215 178 197 230 261 218 256 253 256 259 275 268 281 294 288 143 190 197 210 182 232 151 233 196 204 188 185 233 176 211 206 234 237 243 224 234 202 210 229 243 235 232 242 239 219 225 173 121 128 117 213 230 248 273 344 323 300 286 287 229 188 186 170 157 161 171 159 170 161 161 159 158 152
157 166 180 190 192 217 234 243 239 217 246 246 246 37 99 147 172 174 207 216 234 207 210 237 253 287 287 272 269 115 347 301 266 164 249 160 210 231 170 223 168 215 191 197 233 220 228 222 215 217 227 205 222 227 231 233 227 229 224 213 198 190 171 200 209 234 236 230 263 289 298 293 233 215 195 194 185 168 173 174 174 179 167 168 158 158 158
169 172 187 192 233 241 243 222 240 236 227 243 45 92 118 137 156 167 208 214 261 303 276 280 255 256 262 279 323 43 323 273 257 130 264 128 187 215 253 222 221 204 214 183 229 211 232 198 203 230 205 219 218 219 225 223 246 239 229 213 183 188 226 237 219 196 136 142 196 287 292 300 279 251 194 199 199 174 187 181 180 181 170 166 159 155 161
175 180 174 215 227 228 225 240 179 223 229 63 100 131 158 183 129 179 180 231 223 232 269 289 282 272 287 316 319 294 271 262 143 213 215 212 183 356 252 223 246 188 192 218 221 230 230 218 229 232 224 227 221 203 218 210 214 228 230 218 196 193 233 234 203 218 217 204 209 227 240 251 65 17 336 258 211 188 190 195 187 185 171 167 159 163 164
172 191 203 208 213 226 216 203 200 122 103 112 136 152 183 225 200 184 195 226 213 197 228 229 252 271 286 281 273 18 273 230 150 254 217 272 242 198 201 245 232 211 221 223 217 233 196 139 237 244 245 243 260 241 212 202 209 224 242 228 221 225 223 228 221 201 217 230 228 218 218 238 204 129 171 279 253 205 200 203 188 183 169 169 162 163 162
173 182 236 236 260 263 3 100 110 129 143 144 237 262 205 202 225 221 198 193 169 222 219 234 246 242 249 257 263 252 254 323 293 234 225 81 345 312 271 231 72 313 233 241 183 92 238 225 226 231 243 242 242 226 209 251 257 268 314 225 206 206 213 244 221 198 222 259 282 253 220 217 192 175 166 221 293 256 212 205 188 171 159 164 160 171 159
185 205 224 204 226 120 113 141 167 156 166 200 186 247 248 198 225 239 162 199 212 214 191 229 222 230 230 248 265 272 333 254 254 292 314 113 66 244 290 319 45 255 234 239 206 160 240 238 236 235 237 225 233 251 240 214 211 211 228 230 227 235 249 249 185 184 216 234 252 270 249 231 218 174 163 169 184 281 244 214 206 178 163 172 154 165 169
213 254 246 285 24 209 160 156 194 202 207 217 211 212 254 235 211 252 242 227 234 235 186 245 200 214 207 230 242 256 150 277 280 153 231 228 276 257 224 239 83 342 277 242 110 163 246 244 239 242 242 230 225 208 219 206 215 215 218 222 226 231 235 245 188 184 202 229 238 241 246 221 198 173 193 174 168 198 300 271 206 187 177 170 166 170 161
170 278 320 312 282 303 197 200 211 212 222 229 255 237 222 255 241 226 223 266 258 263 172 190 232 246 232 232 236 264 222 150 308 281 258 226 194 238 244 196 181 224 244 321 226 158 217 235 241 245 246 226 192 188 226 233 209 217 218 221 223 221 224 223 217 193 198 206 228 234 221 225 222 187 187 165 138 127 245 294 278 203 189 165 164 162 147
293 258 268 277 250 220 191 213 199 227 233 176 182 272 233 234 229 248 229 207 263 271 193 230 274 265 263 211 238 227 313 83 255 197 229 226 144 231 237 212 219 234 247 133 220 209 222 231 244 245 246 222 199 193 197 213 217 214 219 219 221 223 226 227 224 221 203 205 208 201 188 206 236 252 175 146 155 172 203 234 242 265 204 165 169 163 142
272 251 232 224 225 204 164 198 162 207 233 218 184 219 218 231 233 239 263 269 236 241 262 259 271 283 249 167 262 189 216 205 216 290 266 223 222 218 239 235 232 49 34 253 244 250 254 252 254 271 246 111 140 175 211 221 223 229 235 235 242 243 239 236 235 236 231 210 198 193 184 171 150 98 144 179 176 186 206 223 171 169 238 185 165 160 146
219 200 242 229 239 294 90 284 214 216 222 215 227 240 239 247 242 260 253 5 303 294 210 254 248 226 261 206 234 253 220 265 138 239 245 204 230 236 245 256 282 217 230 249 245 256 253 253 245 236 243 237 168 170 201 203 208 227 224 225 233 236 234 233 232 233 236 227 198 185 183 184 180 168 152 195 243 207 196 213 178 134 246 216 165 159 148
215 196 184 191 289 280 220 257 174 219 232 233 231 237 252 265 271 272 291 244 269 275 264 314 289 247 271 348 298 4 345 298 245 233 275 251 261 246 245 332 282 261 251 256 256 257 258 272 266 253 195 202 211 181 169 210 219 225 229 230 225 233 241 245 253 257 242 201 213 213 189 179 177 153 162 207 235 249 209 154 113 140 207 229 182 160 149
282 261 245 271 276 228 219 237 220 224 250 249 244 247 258 306 307 299 298 299 277 290 287 130 261 309 293 220 268 227 220 222 257 241 247 257 248 251 134 252 244 239 244 250 246 257 280 2 17 24 72 104 173 205 222 220 217 234 247 258 267 270 265 260 255 254 247 238 232 221 180 173 175 167 162 174 224 264 254 166 162 163 177 216 197 148 151
241 216 216 213 224 209 217 231 249 250 242 254 274 293 168 189 197 247 263 267 312 317 315 342 285 224 255 170 241 257 295 319 285 262 265 295 3 279 267 243 245 245 242 254 264 316 68 119 353 38 74 85 76 83 95 99 187 244 251 258 259 258 259 258 254 251 255 251 242 225 185 182 182 176 173 176 189 203 208 204 164 166 162 204 196 152 155
292 278 221 228 241 241 241 239 246 256 255 255 248 257 264 265 274 271 321 353 316 4 6 335 328 331 284 347 261 246 243 199 240 236 178 215 248 228 211 244 243 246 238 274 319 84 205 54 101 101 28 58 79 275 237 243 255 254 251 251 255 264 268 269 272 271 261 258 255 227 198 189 190 193 180 183 188 197 204 181 162 167 185 185 157 157 161
264 259 261 251 258 252 259 272 270 262 262 258 252 247 247 257 258 263 286 287 39 50 221 239 221 251 293 334 269 271 268 239 244 230 236 239 235 248 248 254 254 272 0 11 298 338 15 81 80 141 265 298 17 313 282 272 258 256 257 258 255 257 262 262 259 258 259 248 236 226 206 200 182 190 203 198 197 172 118 112 149 203 190 172 160 162 164
242 251 261 259 261 274 309 281 283 292 280 274 335 317 306 267 259 289 37 342 351 310 262 263 16 289 261 226 243 266 240 236 242 239 244 246 237 254 260 264 286 358 353 350 353 323 316 323 297 291 288 247 243 273 288 293 295 289 276 267 272 277 273 259 251 249 244 241 226 203 191 184 187 194 206 226 163 126 135 169 189 200 186 167 162 164 160
238 237 246 247 242 250 258 272 272 263 274 291 290 308 326 301 284 244 128 257 271 265 267 161 214 226 207 249 243 264 320 323 255 250 243 237 221 241 244 270 13 230 309 324 290 316 299 290 290 279 274 275 278 271 274 282 281 280 279 278 278 277 279 281 282 268 259 251 228 205 194 188 167 177 160 50 48 122 153 184 194 193 184 169 162 161 160